SL-8 R/B (15483 NORAD) Tracking and Keplerian Element Data

This shows tracking and keplerian element data for the satellite.

Feedback or suggestion? Click here.




ElementValue
Catalog15483
NameSL-8 R/B
Epoch Orbit93654
Epoch Day15.69322976
Epoch Year2022
RAAN163.4477
Inclination74.0451
Eccentricity0.0017655
Argument of Perigee91.9491
Mean Anonmoly279.4219
Mean Motion14.36415446
Decay Rate1.78E-06
L11 15483U 85006B 22015.69322976 .00000178 00000+0 69554-4 0 9992
L22 15483 74.0451 163.4477 0017655 91.9491 279.4219 14.36415446936542

Live tracking and technical data element details for SL-8 R/B (NORAD 15483). SL-8 R/B can be tracked NOW for your location showing map with azimuth and elevation plus other details from your city location.

Track the satellite on the map from your city or location and see movement details for azimuth, elevation, latitude, longitude, range, height, and movement on the map or in text.







IsCatalogInMostPopularTable: catalog: 15483, numindb: 332
Update: records affected: 1



GetName: 15483 SL-8 R/B

Hit Count: updated at: Mon, 17 Jan 2022 00:33:48 GMT